| time (UTC) | temp F | wind direction | speed MPH | gust MPH | rain 1hr in | rain 24hr in | rain mn in | humidity % | barometer mb |
| 20260903103005 | 70 | 129 | 2.0 | 5.0 | 0.00 | 0.02 | 0.00 | 95 | 1008.3 |
| 20260903100003 | 70 | 101 | 0.0 | 3.0 | 0.00 | 0.02 | 0.00 | 94 | 1008.6 |
| 20260903095005 | 70 | 83 | 0.0 | 2.0 | 0.00 | 0.02 | 0.00 | 94 | 1008.7 |
| 20260903094005 | 70 | 77 | 2.0 | 3.0 | 0.00 | 0.02 | 0.00 | 94 | 1008.5 |
| 20260903093005 | 70 | 58 | 1.0 | 3.0 | 0.00 | 0.02 | 0.00 | 94 | 1008.8 |
| 20260903092004 | 70 | 57 | 1.0 | 2.0 | 0.00 | 0.02 | 0.00 | 94 | 1009.0 |
| 20260903091004 | 70 | 110 | 2.0 | 6.0 | 0.00 | 0.03 | 0.00 | 94 | 1008.9 |
| 20260903083003 | 70 | 111 | 1.0 | 2.0 | 0.00 | 0.03 | 0.00 | 93 | 1009.3 |
| 20260903073003 | 71 | 128 | 2.0 | 3.0 | 0.00 | 0.03 | 0.00 | 92 | 1009.5 |
| 20260903072004 | 71 | 120 | 3.0 | 4.0 | 0.00 | 0.03 | 0.00 | 92 | 1009.4 |
| 20260903065005 | 71 | 142 | 4.0 | 7.0 | 0.00 | 0.03 | 0.00 | 91 | 1009.7 |
| 20260903052003 | 72 | 80 | 2.0 | 3.0 | 0.00 | 0.03 | 0.00 | 90 | 1010.3 |
| 20260903044003 | 73 | 84 | 1.0 | 3.0 | 0.00 | 0.03 | 0.03 | 89 | 1010.3 |
| 20260903035003 | 74 | 96 | 2.0 | 4.0 | 0.00 | 0.03 | 0.03 | 88 | 1010.5 |
| 20260903025004 | 76 | 95 | 1.0 | 5.0 | 0.00 | 0.03 | 0.03 | 85 | 1010.7 |
| 20260903024003 | 76 | 87 | 1.0 | 2.0 | 0.00 | 0.03 | 0.03 | 85 | 1010.6 |
| 20260903021004 | 77 | 92 | 2.0 | 6.0 | 0.00 | 0.03 | 0.03 | 82 | 1010.4 |
| 20260903020004 | 77 | 97 | 1.0 | 2.0 | 0.00 | 0.03 | 0.03 | 81 | 1010.4 |
| 20260903015004 | 78 | 91 | 2.0 | 6.0 | 0.00 | 0.03 | 0.03 | 81 | 1010.2 |
| 20260903013004 | 78 | 100 | 1.0 | 3.0 | 0.00 | 0.03 | 0.03 | 79 | 1010.1 |
| 20260903004003 | 80 | 103 | 2.0 | 4.0 | 0.00 | 0.03 | 0.03 | 76 | 1010.2 |
| 20260902234004 | 83 | 128 | 3.0 | 4.0 | 0.00 | 0.03 | 0.03 | 72 | 1010.2 |
| 20260902232003 | 83 | 94 | 4.0 | 10.0 | 0.00 | 0.03 | 0.03 | 71 | 1010.2 |
| 20260902231004 | 83 | 147 | 4.0 | 5.0 | 0.00 | 0.03 | 0.03 | 71 | 1010.1 |
| 20260902225004 | 84 | 124 | 5.0 | 8.0 | 0.00 | 0.03 | 0.03 | 70 | 1010.1 |
| 20260902224005 | 84 | 126 | 4.0 | 5.0 | 0.00 | 0.03 | 0.03 | 70 | 1010.1 |
| 20260902223005 | 84 | 131 | 2.0 | 5.0 | 0.00 | 0.03 | 0.03 | 70 | 1010.1 |
| 20260902220005 | 84 | 129 | 6.0 | 10.0 | 0.00 | 0.03 | 0.03 | 69 | 1010.4 |
| 20260902215004 | 84 | 89 | 5.0 | 9.0 | 0.00 | 0.03 | 0.03 | 68 | 1010.4 |
| 20260902212003 | 84 | 58 | 5.0 | 10.0 | 0.00 | 0.03 | 0.03 | 68 | 1010.7 |
| 20260902210004 | 84 | 73 | 4.0 | 7.0 | 0.00 | 0.03 | 0.03 | 68 | 1010.9 |
| 20260902205004 | 84 | 81 | 3.0 | 9.0 | 0.00 | 0.03 | 0.03 | 68 | 1010.9 |
| 20260902202004 | 84 | 73 | 3.0 | 5.0 | 0.00 | 0.03 | 0.03 | 67 | 1011.2 |
| 20260902201004 | 84 | 105 | 3.0 | 6.0 | 0.00 | 0.03 | 0.03 | 68 | 1011.2 |
| 20260902192004 | 83 | 87 | 4.0 | 7.0 | 0.00 | 0.03 | 0.03 | 70 | 1011.6 |
| 20260902191003 | 83 | 114 | 3.0 | 5.0 | 0.00 | 0.03 | 0.03 | 70 | 1011.8 |
| 20260902184004 | 82 | 104 | 2.0 | 5.0 | 0.00 | 0.03 | 0.03 | 71 | 1012.1 |
| 20260902180007 | 81 | 90 | 2.0 | 4.0 | 0.00 | 0.03 | 0.03 | 71 | 1012.3 |
| 20260902175004 | 81 | 140 | 4.0 | 6.0 | 0.00 | 0.03 | 0.03 | 72 | 1012.6 |
| 20260902174004 | 80 | 136 | 2.0 | 5.0 | 0.00 | 0.03 | 0.03 | 72 | 1012.7 |
| 20260902165005 | 80 | 135 | 3.0 | 7.0 | 0.00 | 0.03 | 0.03 | 73 | 1012.8 |
| 20260902163005 | 78 | 59 | 4.0 | 6.0 | 0.00 | 0.03 | 0.03 | 73 | 1012.7 |
| 20260902160007 | 76 | 108 | 2.0 | 4.0 | 0.00 | 0.03 | 0.03 | 78 | 1012.6 |
| 20260902154004 | 76 | 79 | 1.0 | 4.0 | 0.00 | 0.03 | 0.03 | 78 | 1012.9 |
| 20260902143003 | 71 | 139 | 3.0 | 3.0 | 0.00 | 0.03 | 0.03 | 83 | 1013.1 |
| 20260902135003 | 67 | 83 | 0.0 | 0.0 | 0.00 | 0.03 | 0.03 | 89 | 1013.7 |
| 20260902132005 | 67 | 63 | 1.0 | 2.0 | 0.00 | 0.03 | 0.03 | 87 | 1013.1 |
| 20260902120005 | 63 | 9 | 2.0 | 3.0 | 0.00 | 0.03 | 0.03 | 93 | 1013.0 |